Location: Asheville, NC
(35.6000°N, 82.5500°W)
Time: 01:36:22
(UTC-05:00)

Tiangong 2 - Pass Details

Date: 11 February 2018
Orbit: 384 x 388 km, 42.8° (Epoch: 21 February)

Event Time Altitude Azimuth Distance (km) Brightness Sun altitude
Rises 19:05:33 0° 247° (WSW) 2,251 6.6 -12.2°
Reaches altitude 10° 19:07:37 10° 249° (WSW) 1,399 5.3 -12.6°
Maximum altitude 19:10:46 73° 333° (NNW) 402 1.1 -13.2°
Enters shadow 19:12:28 25° 56° (NE) 829 2.2 -13.6°
